Regional Weather Roundup
Issued by NWS

Home | Current Version | Previous Version | Graphics & Text | Print | Product List | Glossary On
Versions: 1 2 3 4 5 6 7 8 9 10 11 12 13 14 15 16 17 18 19 20 21 22 23 24 25 26 27 28 29 30 31 32 33 34 35 36 37 38 39 40 41 42 43 44 45 46 47 48 49 50
738
ASUS43 KDMX 081808
RWRIA

WEATHER ROUNDUP FOR IOWA
NATIONAL WEATHER SERVICE DES MOINES IA
1200 PM CST MON FEB 08 2016

NOTE: "FAIR" INDICATES FEW OR NO CLOUDS BELOW 12,000 FEET WITH NO
SIGNIFICANT WEATHER AND/OR OBSTRUCTIONS TO VISIBILITY.

* - THESE STATIONS ARE NOT NWS STATIONS...THUS NOT UNDER NWS
QUALITY CONTROL.  THEY ALSO DO NOT REPORT WEATHER SUCH
AS PRECIPITATION OR FOG.

IAZ001>003-012>014-020>022-031>034-043>046-081900-
   NORTHWEST IOWA

CITY           SKY/WX    TMP DP  RH WIND       PRES   REMARKS
CARROLL *      LGT SNOW  19  14  79 NW37G47   30.03S VSB 1   WCI  -1
CHEROKEE *     LGT SNOW  18  13  81 N24G38    30.08R WCI   0
DENISON *      LGT RAIN  19  16  86 N29G38    30.05S VSB 1   WCI   1
LE MARS *      FLURRIES  23  18  80 N22G35    30.12S WCI   8
ORANGE CITY *    N/A     19  18  93 N18G26    30.08S WCI   4
SHELDON *      LGT SNOW  18  14  86 N31G38    30.06S VSB 3/4 WCI  -2
SIOUX CITY     FLURRIES  26  16  65 N38G47    30.11S WCI   8
6HR MIN TEMP:  25; 6HR MAX TEMP:  26; 6HR PCP: TRACE;

SPENCER        LGT SNOW  15   8  73 NW38G46   30.04S WCI  -7
6HR MIN TEMP:  14; 6HR MAX TEMP:  15; 6HR PCP:  0.01;

STORM LAKE *   FLURRIES  16  10  79 N39       30.03S WCI  -7
$$

IAZ055>058-069>071-079>083-090>094-081900-
   SOUTHWEST IOWA

CITY           SKY/WX    TMP DP  RH WIND       PRES   REMARKS
ATLANTIC *     LGT SNOW  21  16  79 N25G35    30.07S VSB 1   WCI   4
AUDUBON *      CLOUDY    21  16  79 NW28G36   30.04F WCI   3
CLARINDA *     CLOUDY    25  18  74 NW28G36   30.10S WCI   8
COUNCIL BLFS *   N/A     27  16  63 N26G40    30.08F WCI  11
CRESTON *      LGT SNOW  21  12  68 NW40G52   30.00F WCI   1
HARLAN  *      LGT SNOW  21  16  79 N23G36    30.10S WCI   5
LAMONI         FLURRIES  21  11  65 NW28G40   29.99F WCI   3
6HR MIN TEMP:  20; 6HR MAX TEMP:  23; 6HR PCP: TRACE;

RED OAK *      CLOUDY    25  18  74 N22G31    30.09S WCI  10
SHENANDOAH *   CLOUDY    28  19  69 N22G33    30.11S WCI  15
$$

IAZ047>049-059>061-072>074-084-081900-
   CENTRAL IOWA

CITY           SKY/WX    TMP DP  RH WIND       PRES   REMARKS
AMES           MIX PCPN  16   8  71 N28G38    29.98S WCI  -4
6HR MIN TEMP:  14; 6HR MAX TEMP:  16; 6HR PCP: TRACE;

ANKENY *       LGT SNOW  18  10  73 NW25G35   29.99S WCI  -1
BOONE *        LGT SNOW  16   7  67 NW28G39   29.96F WCI  -4
CHARITON *     LGT SNOW  19  10  68 NW26G40   29.96S WCI   1
DES MOINES     BLWGSNOW  18   8  65 NW35G45   29.97F VSB 1   WCI  -3
6HR MIN TEMP:  17; 6HR MAX TEMP:  19; 6HR PCP: TRACE;

GRINNELL*      LGT SNOW  16  10  79 NW26      29.92R WCI  -3
KNOXVILLE *    CLOUDY    18   9  68 NW30G38   29.94S WCI  -2
MARSHALLTOWN   CLOUDY    15   7  70 NW30G43   29.92F WCI  -5
6HR MIN TEMP:  14; 6HR MAX TEMP:  15; 6HR PCP: TRACE;

NEWTON *       FLURRIES  16   9  73 NW28G39   29.94S WCI  -4
PELLA *        LGT SNOW  17  11  75 NW25G35   29.96S WCI  -1
$$

IAZ004>006-015-016-023>025-035-036-081900-
   NORTH CENTRAL IOWA

CITY           SKY/WX    TMP DP  RH WIND       PRES   REMARKS
ALGONA *       LGT SNOW  16   9  73 NW31G40   29.96F WCI  -5
CLARION *      LGT SNOW  14   7  73 NW33G41   29.95S WCI  -8
ESTHERVILLE    LGT SNOW  14   9  80 NW33G40   29.99F VSB 3/4 WCI  -8
6HR MIN TEMP:  11; 6HR MAX TEMP:  14; 6HR PCP:  0.01;

FORT DODGE *   PTSUNNY   18   7  62 NW14G31   30.00S WCI   4
MASON CITY     LGT SNOW  13   7  77 NW25G40   29.93R WCI  -7
6HR MIN TEMP:  11; 6HR MAX TEMP:  13; 6HR PCP: TRACE;

FOREST CITY *  LGT SNOW  14   9  79 NW22G32   29.93S WCI  -4
WEBSTER CITY * LGT SNOW  14  10  85 NW37G43   29.96S VSB 1   WCI  -9
IOWA FALLS *   CLOUDY    15  11  83 NW29G39   29.94S WCI  -6
$$

IAZ007>011-017>019-026>030-037>042-050>054-066-081900-
   NORTHEAST IOWA

CITY           SKY/WX    TMP DP  RH WIND       PRES   REMARKS
CEDAR RAPIDS   LGT SNOW  16  11  80 NW25G32   29.85R WCI  -3
6HR MIN TEMP:  16; 6HR MAX TEMP:  18; 6HR PCP: TRACE;

CHARLES CITY * CLOUDY    14   9  79 NW25G32   29.88S WCI  -5
CLINTON *      FLURRIES  22  15  75 NW20G25   29.78S WCI   7
DECORAH *      FLURRIES  16   9  73 NW18G26   29.81S WCI  -1
DUBUQUE        CLOUDY    19  12  74 NW14      29.76S WCI   6
6HR MIN TEMP:  16; 6HR MAX TEMP:  19; 6HR PCP: TRACE;

MONTICELLO *   FLURRIES  19  14  79 NW18      29.81R WCI   4
OELWEIN *      SNOW      14  10  85 NW24G33   29.84S VSB 1/2 WCI  -5
WATERLOO       LGT SNOW  15   8  73 NW29G35   29.88R WCI  -5
6HR MIN TEMP:  13; 6HR MAX TEMP:  15; 6HR PCP: TRACE;

$$

IAZ064-065-067-068-078-081900-
   EAST CENTRAL IOWA

CITY           SKY/WX    TMP DP  RH WIND       PRES   REMARKS
DAVENPORT      LGT SNOW  20  13  74 NW21G28   29.80S WCI   4
6HR MIN TEMP:  19; 6HR MAX TEMP:  21; 6HR PCP: TRACE;

IOWA CITY      LGT SNOW  18  10  71 NW22G32   29.88R WCI   1
6HR MIN TEMP:  18; 6HR MAX TEMP:  19; 6HR PCP: TRACE;

MT. PLEASANT * FLURRIES  21  13  70 NW16G25   29.88S WCI   7
MUSCATINE *    FLURRIES  21  12  68 NW20G26   29.87R WCI   6
QUAD CITIES    LGT SNOW  21  13  71 NW20G28   29.80S WCI   6
6HR MIN TEMP:  20; 6HR MAX TEMP:  22; 6HR PCP: TRACE;

$$

IAZ062-063-075>077-085>089-095>099-081900-
   SOUTHEAST IOWA

CITY           SKY/WX    TMP DP  RH WIND       PRES   REMARKS
BURLINGTON     LGT SNOW  19  12  74 NW16G30   29.85S WCI   4
6HR MIN TEMP:  18; 6HR MAX TEMP:  22; 6HR PCP: TRACE;

FAIRFIELD *    LGT SNOW  18  10  73 NW25      29.89F WCI  -1
FORT MADISON * FLURRIES  19  12  73 NW23G31   29.87F WCI   2
KEOKUK *       CLOUDY    21  12  68 NW17G24   29.89S WCI   7
OSKALOOSA *    LGT SNOW  18  11  74 NW30G37   29.92S WCI  -2
CENTERVILLE *    N/A    N/A N/A N/A MISG        N/A
OTTUMWA        FLURRIES  18  11  74 NW32G43   29.93R WCI  -2
6HR MIN TEMP:  16; 6HR MAX TEMP:  19; 6HR PCP: TRACE;

WASHINGTON *   FLURRIES  18  12  79 NW24G33   29.89S WCI   0
$$

ABBREVIATIONS USED IN REMARKS
   TC - TEMPERATURES IN CELSIUS
  WCI - WIND CHILL INDEX
   HX - HEAT INDEX
  VSB - VISIBILITY
$$





USA.gov is the U.S. government's official web portal to all federal, state and local government web resources and services.